Hourly Weather Egorovo

Today, 11 August, Tuesday

Time Temperature Precipitation Wind Pressure Humidity
00:00 +18°C° 0 mm 2 mps 745 mmHg 76%
01:00 +17°C° 0 mm 2 mps 745 mmHg 76%
02:00 +17°C° 0 mm 2 mps 744 mmHg 77%
03:00 +16°C° 0 mm 2 mps 744 mmHg 77%
04:00 +16°C° 0 mm 2 mps 744 mmHg 79%
05:00 +16°C° 0 mm 2 mps 744 mmHg 81%
06:00 +16°C° 0 mm 2 mps 745 mmHg 84%
07:00 +18°C° 0 mm 2 mps 744 mmHg 78%
08:00 +21°C° 0 mm 2 mps 744 mmHg 72%
09:00 +24°C° 0 mm 3 mps 744 mmHg 66%
10:00 +25°C° 0 mm 3 mps 744 mmHg 61%
11:00 +27°C° 0 mm 3 mps 744 mmHg 55%
12:00 +29°C° 0 mm 3 mps 744 mmHg 50%
13:00 +30°C° 0 mm 3 mps 744 mmHg 49%
14:00 +30°C° 0 mm 3 mps 744 mmHg 47%
15:00 +31°C° 0 mm 3 mps 744 mmHg 45%
16:00 +30°C° 0 mm 2 mps 744 mmHg 50%
17:00 +30°C° 0 mm 2 mps 744 mmHg 55%
18:00 +29°C° 0 mm 2 mps 744 mmHg 59%
19:00 +27°C° 0 mm 2 mps 744 mmHg 63%
20:00 +25°C° 0 mm 2 mps 743 mmHg 67%
21:00 +22°C° 0 mm 3 mps 743 mmHg 71%
22:00 +21°C° 0 mm 3 mps 743 mmHg 74%
23:00 +20°C° 0 mm 3 mps 743 mmHg 76%

Tomorrow, 12 August, Wednesday

Time Temperature Precipitation Wind Pressure Humidity
00:00 +19°C° 0 mm 3 mps 743 mmHg 79%
01:00 +19°C° 0.1 mm 2 mps 743 mmHg 82%
02:00 +18°C° 0.1 mm 2 mps 743 mmHg 84%
03:00 +17°C° 0.1 mm 2 mps 742 mmHg 87%
04:00 +17°C° 0.4 mm 2 mps 742 mmHg 89%
05:00 +17°C° 0.4 mm 3 mps 742 mmHg 91%
06:00 +17°C° 0.4 mm 3 mps 742 mmHg 94%
07:00 +19°C° 0 mm 3 mps 742 mmHg 89%
08:00 +20°C° 0 mm 2 mps 742 mmHg 85%
09:00 +23°C° 0 mm 2 mps 742 mmHg 81%
10:00 +25°C° 0 mm 2 mps 742 mmHg 73%
11:00 +27°C° 0 mm 2 mps 742 mmHg 65%
12:00 +29°C° 0 mm 3 mps 741 mmHg 57%
13:00 +29°C° 1.1 mm 2 mps 741 mmHg 59%
14:00 +29°C° 1.1 mm 2 mps 741 mmHg 62%
15:00 +29°C° 1.1 mm 2 mps 741 mmHg 64%
16:00 +28°C° 0.6 mm 3 mps 740 mmHg 68%
17:00 +27°C° 0.6 mm 3 mps 740 mmHg 73%
18:00 +26°C° 0.6 mm 3 mps 740 mmHg 78%
19:00 +24°C° 1.2 mm 3 mps 740 mmHg 83%
20:00 +21°C° 1.2 mm 2 mps 741 mmHg 88%
21:00 +19°C° 1.2 mm 2 mps 741 mmHg 93%
22:00 +19°C° 0.2 mm 2 mps 741 mmHg 94%
23:00 +18°C° 0.2 mm 2 mps 741 mmHg 95%

Day after tomorrow, 13 August, Thursday

Time Temperature Precipitation Wind Pressure Humidity
00:00 +18°C° 0.2 mm 3 mps 741 mmHg 96%
01:00 +17°C° 0 mm 3 mps 741 mmHg 96%
02:00 +17°C° 0 mm 2 mps 741 mmHg 95%
03:00 +16°C° 0 mm 2 mps 741 mmHg 95%
04:00 +16°C° 0 mm 2 mps 741 mmHg 95%
05:00 +16°C° 0 mm 2 mps 741 mmHg 94%
06:00 +15°C° 0 mm 2 mps 742 mmHg 94%
07:00 +17°C° 0 mm 2 mps 742 mmHg 88%
08:00 +19°C° 0 mm 2 mps 742 mmHg 82%
09:00 +20°C° 0 mm 2 mps 742 mmHg 77%
10:00 +23°C° 0 mm 2 mps 742 mmHg 71%
11:00 +24°C° 0 mm 2 mps 742 mmHg 65%
12:00 +25°C° 0 mm 3 mps 742 mmHg 59%
13:00 +25°C° 0.5 mm 3 mps 742 mmHg 62%
14:00 +25°C° 0.5 mm 3 mps 742 mmHg 66%
15:00 +25°C° 0.5 mm 3 mps 741 mmHg 69%
16:00 +25°C° 0.2 mm 2 mps 741 mmHg 70%
17:00 +24°C° 0.2 mm 2 mps 742 mmHg 72%
18:00 +24°C° 0.2 mm 2 mps 742 mmHg 73%
19:00 +21°C° 0 mm 2 mps 742 mmHg 79%
20:00 +20°C° 0 mm 2 mps 742 mmHg 84%
21:00 +18°C° 0 mm 2 mps 742 mmHg 90%
22:00 +18°C° 0 mm 2 mps 742 mmHg 92%
23:00 +17°C° 0 mm 2 mps 742 mmHg 93%

14 August, Friday

Time Temperature Precipitation Wind Pressure Humidity
00:00 +17°C° 0 mm 2 mps 742 mmHg 95%
01:00 +16°C° 0 mm 2 mps 742 mmHg 96%
02:00 +16°C° 0 mm 2 mps 742 mmHg 96%
03:00 +16°C° 0 mm 1 mps 742 mmHg 96%
04:00 +16°C° 0 mm 1 mps 742 mmHg 96%
05:00 +16°C° 0 mm 1 mps 742 mmHg 96%
06:00 +16°C° 0 mm 1 mps 742 mmHg 96%
07:00 +18°C° 0 mm 1 mps 742 mmHg 89%
08:00 +20°C° 0 mm 1 mps 743 mmHg 83%
09:00 +22°C° 0 mm 1 mps 743 mmHg 77%
10:00 +23°C° 0 mm 2 mps 743 mmHg 71%
11:00 +24°C° 0 mm 2 mps 743 mmHg 66%
12:00 +25°C° 0 mm 2 mps 743 mmHg 61%
13:00 +25°C° 0.5 mm 2 mps 742 mmHg 64%
14:00 +25°C° 0.5 mm 3 mps 742 mmHg 68%
15:00 +25°C° 0.5 mm 3 mps 742 mmHg 71%
16:00 +24°C° 0.9 mm 2 mps 742 mmHg 77%
17:00 +23°C° 0.9 mm 2 mps 743 mmHg 83%
18:00 +23°C° 0.9 mm 2 mps 743 mmHg 89%
19:00 +20°C° 0.1 mm 2 mps 743 mmHg 91%
20:00 +19°C° 0.1 mm 2 mps 743 mmHg 93%
21:00 +19°C° 0.1 mm 1 mps 743 mmHg 95%
22:00 +17°C° 0.2 mm 2 mps 743 mmHg 96%
23:00 +17°C° 0.2 mm 2 mps 743 mmHg 97%

15 August, Saturday

Time Temperature Precipitation Wind Pressure Humidity
00:00 +16°C° 0.2 mm 2 mps 744 mmHg 97%
01:00 +17°C° 0.3 mm 2 mps 744 mmHg 98%
02:00 +17°C° 0.3 mm 2 mps 744 mmHg 98%
03:00 +17°C° 0.3 mm 2 mps 744 mmHg 98%
04:00 +17°C° 0.3 mm 2 mps 745 mmHg 98%
05:00 +17°C° 0.3 mm 2 mps 745 mmHg 98%
06:00 +17°C° 0.3 mm 2 mps 745 mmHg 98%
07:00 +17°C° 0.3 mm 3 mps 745 mmHg 98%
08:00 +17°C° 0.3 mm 3 mps 745 mmHg 97%
09:00 +17°C° 0.3 mm 3 mps 746 mmHg 97%
10:00 +16°C° 0.3 mm 3 mps 746 mmHg 97%
11:00 +16°C° 0.3 mm 3 mps 746 mmHg 97%
12:00 +16°C° 0.3 mm 3 mps 746 mmHg 96%
13:00 +16°C° 0 mm 3 mps 747 mmHg 95%
14:00 +16°C° 0 mm 3 mps 747 mmHg 94%
15:00 +17°C° 0 mm 3 mps 747 mmHg 93%
16:00 +17°C° 0 mm 3 mps 748 mmHg 93%
17:00 +17°C° 0 mm 3 mps 748 mmHg 92%
18:00 +16°C° 0 mm 3 mps 748 mmHg 91%
19:00 +16°C° 0 mm 2 mps 748 mmHg 92%
20:00 +16°C° 0 mm 2 mps 749 mmHg 93%
21:00 +15°C° 0 mm 2 mps 749 mmHg 94%
22:00 +15°C° 0 mm 2 mps 749 mmHg 95%
23:00 +15°C° 0 mm 2 mps 749 mmHg 95%

16 August, Sunday

Time Temperature Precipitation Wind Pressure Humidity
00:00 +14°C° 0 mm 2 mps 749 mmHg 95%
01:00 +14°C° 0 mm 2 mps 749 mmHg 96%
02:00 +14°C° 0 mm 1 mps 749 mmHg 96%
03:00 +14°C° 0 mm 1 mps 749 mmHg 96%
04:00 +14°C° 0 mm 1 mps 749 mmHg 96%
05:00 +14°C° 0 mm 1 mps 749 mmHg 95%
06:00 +14°C° 0 mm 1 mps 749 mmHg 95%
07:00 +14°C° 0 mm 1 mps 750 mmHg 93%
08:00 +15°C° 0 mm 1 mps 750 mmHg 92%
09:00 +15°C° 0 mm 1 mps 750 mmHg 91%
10:00 +15°C° 0 mm 1 mps 750 mmHg 89%
11:00 +15°C° 0 mm 1 mps 750 mmHg 88%
12:00 +16°C° 0 mm 1 mps 750 mmHg 87%
13:00 +16°C° 0 mm 1 mps 750 mmHg 85%
14:00 +18°C° 0 mm 1 mps 750 mmHg 83%
15:00 +17°C° 0 mm 2 mps 750 mmHg 81%
16:00 +18°C° 0 mm 1 mps 750 mmHg 82%
17:00 +18°C° 0 mm 1 mps 750 mmHg 82%
18:00 +18°C° 0 mm 1 mps 751 mmHg 83%
19:00 +16°C° 0 mm 1 mps 751 mmHg 87%
20:00 +15°C° 0 mm 1 mps 751 mmHg 91%
21:00 +14°C° 0 mm 1 mps 751 mmHg 95%
22:00 +14°C° 0 mm 1 mps 750 mmHg 95%
23:00 +13°C° 0 mm 1 mps 750 mmHg 95%
Show more